THA925 EDDM-VTBS

Flight info

Callsign THA925
Flight time N/A
Altitude 23000
Route KIRDI2E/08R KIRDI DCT BUWOQ DCT OBFEZ/N0482F370 DCT STEIN DCT TEGRI DCT DINRO N743 UDROS UM859 KARDE UL851 TBN UR317 REBLO P130 ELSIV/N0485F390 P130 MAMED B449 RANAH L750 MERUN G452 LKN/N0489F410 R460 CEA L507 IGONI WILLA1C
Aircraft A359/H-SDE2E3GHIJ1J3J4J5LM1ORWXY/LB1D1

Departure

Time N/A
Airport Munich Airport (EDDM)

Arrival

Time 2026-05-03 22:28
Airport Suvarnabhumi Airport (VTBS)
Time Latitude Longitude Altitude Speed Heading
2026-05-03 20:15 23.91811 86.26575 40890 ft 515 kts 127°
2026-05-03 20:15 23.87743 86.33014 40894 ft 515 kts 127°
2026-05-03 20:16 23.83666 86.39462 40902 ft 515 kts 127°
2026-05-03 20:16 23.79621 86.45914 40879 ft 515 kts 125°
2026-05-03 20:17 23.75891 86.52608 40876 ft 516 kts 123°
2026-05-03 20:17 23.72255 86.59369 40890 ft 516 kts 123°
2026-05-03 20:18 23.68603 86.66045 40868 ft 515 kts 123°
2026-05-03 20:18 23.64900 86.72719 40870 ft 514 kts 123°
2026-05-03 20:19 23.61187 86.79375 40870 ft 514 kts 123°
2026-05-03 20:19 23.57466 86.86036 40862 ft 514 kts 123°
2026-05-03 20:20 23.53746 86.92692 40860 ft 514 kts 123°
2026-05-03 20:20 23.50026 86.99340 40857 ft 514 kts 123°
2026-05-03 20:21 23.46305 87.05993 40856 ft 514 kts 123°
2026-05-03 20:21 23.42583 87.12649 40847 ft 514 kts 123°
2026-05-03 20:22 23.38860 87.19292 40844 ft 514 kts 123°
2026-05-03 20:22 23.35169 87.25872 40844 ft 512 kts 123°
2026-05-03 20:23 23.31454 87.32488 40842 ft 512 kts 123°
2026-05-03 20:23 23.27738 87.39096 40840 ft 513 kts 123°
2026-05-03 20:24 23.24009 87.45720 40837 ft 513 kts 123°
2026-05-03 20:24 23.20282 87.52330 40835 ft 513 kts 123°
2026-05-03 20:25 23.16553 87.58936 40834 ft 513 kts 123°
2026-05-03 20:25 23.12818 87.65544 40835 ft 513 kts 123°
2026-05-03 20:26 23.09081 87.72146 40827 ft 513 kts 123°
2026-05-03 20:26 23.05347 87.78735 40825 ft 512 kts 123°
2026-05-03 20:27 23.01639 87.85271 40822 ft 511 kts 123°
2026-05-03 20:27 22.97908 87.91836 40822 ft 511 kts 123°
2026-05-03 20:28 22.94176 87.98398 40819 ft 511 kts 123°
2026-05-03 20:28 22.90437 88.04962 40814 ft 511 kts 123°
2026-05-03 20:29 22.86697 88.11519 40816 ft 511 kts 123°
2026-05-03 20:29 22.82979 88.18028 40818 ft 510 kts 123°
2026-05-03 20:30 22.79238 88.24572 40822 ft 510 kts 123°
2026-05-03 20:30 22.75491 88.31116 40822 ft 510 kts 123°
2026-05-03 20:31 22.71750 88.37644 40830 ft 509 kts 123°
2026-05-03 20:31 22.68033 88.44120 40832 ft 509 kts 123°
2026-05-03 20:32 22.64122 88.50506 40827 ft 508 kts 127°
2026-05-03 20:32 22.59951 88.56678 40827 ft 508 kts 128°
2026-05-03 20:33 22.55782 88.62848 40824 ft 508 kts 127°
2026-05-03 20:33 22.51658 88.69049 40819 ft 508 kts 127°
2026-05-03 20:34 22.47545 88.75273 40814 ft 508 kts 127°
2026-05-03 20:34 22.43463 88.81451 40816 ft 508 kts 127°
2026-05-03 20:35 22.39353 88.87662 40818 ft 508 kts 127°
2026-05-03 20:35 22.35240 88.93866 40816 ft 508 kts 127°
2026-05-03 20:36 22.31124 89.00066 40820 ft 508 kts 127°
2026-05-03 20:36 22.27084 89.06326 40822 ft 508 kts 125°
2026-05-03 20:37 22.23198 89.12713 40819 ft 509 kts 124°
2026-05-03 20:37 22.19319 89.19095 40820 ft 508 kts 124°
2026-05-03 20:38 22.15412 89.25454 40821 ft 509 kts 125°
2026-05-03 20:38 22.11503 89.31779 40820 ft 509 kts 125°
2026-05-03 20:39 22.07568 89.38131 40827 ft 510 kts 125°
2026-05-03 20:39 22.03621 89.44498 40822 ft 510 kts 125°
2026-05-03 20:40 21.99676 89.50856 40822 ft 510 kts 125°
2026-05-03 20:40 21.95733 89.57204 40825 ft 510 kts 125°
2026-05-03 20:41 21.91792 89.63542 40827 ft 510 kts 125°
2026-05-03 20:41 21.87841 89.69888 40826 ft 510 kts 125°
2026-05-03 20:42 21.83889 89.76227 40826 ft 510 kts 125°
2026-05-03 20:42 21.79938 89.82559 40817 ft 509 kts 125°
2026-05-03 20:43 21.75986 89.88883 40827 ft 509 kts 125°
2026-05-03 20:43 21.72054 89.95168 40825 ft 509 kts 125°
2026-05-03 20:44 21.68096 90.01489 40835 ft 509 kts 125°
2026-05-03 20:44 21.64132 90.07812 40829 ft 510 kts 125°
2026-05-03 20:45 21.60162 90.14137 40829 ft 510 kts 125°
2026-05-03 20:45 21.56190 90.20457 40834 ft 510 kts 126°
2026-05-03 20:46 21.52238 90.26738 40833 ft 510 kts 126°
2026-05-03 20:46 21.48238 90.33089 40835 ft 510 kts 126°
2026-05-03 20:47 21.44287 90.39356 40839 ft 510 kts 126°
2026-05-03 20:47 21.40307 90.45659 40837 ft 510 kts 126°
2026-05-03 20:48 21.36324 90.51962 40840 ft 510 kts 126°
2026-05-03 20:48 21.32338 90.58265 40840 ft 510 kts 126°
2026-05-03 20:49 21.29031 90.63493 40842 ft 510 kts 126°
2026-05-03 20:49 21.25047 90.69784 40842 ft 510 kts 126°
2026-05-03 20:50 21.21060 90.76071 40844 ft 510 kts 126°
2026-05-03 20:50 21.17071 90.82356 40851 ft 510 kts 126°
2026-05-03 20:51 21.13073 90.88647 40841 ft 510 kts 126°
2026-05-03 20:51 21.09085 90.94916 40848 ft 509 kts 126°
2026-05-03 20:52 21.05097 91.01178 40850 ft 508 kts 126°
2026-05-03 20:52 21.01134 91.07394 40851 ft 508 kts 126°
2026-05-03 20:53 20.97148 91.13639 40851 ft 508 kts 126°
2026-05-03 20:53 20.93157 91.19884 40851 ft 508 kts 126°
2026-05-03 20:54 20.89165 91.26124 40855 ft 508 kts 126°
2026-05-03 20:54 20.83167 91.35489 40853 ft 508 kts 126°
2026-05-03 20:55 20.79173 91.41715 40850 ft 508 kts 126°
2026-05-03 20:55 20.75205 91.47893 40854 ft 507 kts 126°
2026-05-03 20:56 20.71217 91.54098 40858 ft 506 kts 126°
2026-05-03 20:56 20.67225 91.60300 40856 ft 507 kts 126°
2026-05-03 20:57 20.63231 91.66500 40856 ft 507 kts 126°
2026-05-03 20:57 20.59229 91.72706 40853 ft 507 kts 126°
2026-05-03 20:58 20.55224 91.78909 40854 ft 507 kts 126°
2026-05-03 20:58 20.51246 91.85064 40862 ft 507 kts 126°
2026-05-03 20:59 20.47243 91.91250 40866 ft 507 kts 126°
2026-05-03 20:59 20.43227 91.97450 40862 ft 509 kts 126°
2026-05-03 21:00 20.39874 92.02614 40867 ft 510 kts 126°
2026-05-03 21:00 20.35097 92.09850 40867 ft 510 kts 126°
2026-05-03 21:01 20.30999 92.16030 40865 ft 510 kts 126°
2026-05-03 21:01 20.26910 92.22206 40864 ft 510 kts 126°
2026-05-03 21:02 20.22823 92.28380 40864 ft 510 kts 126°
2026-05-03 21:02 20.18730 92.34559 40870 ft 511 kts 126°
2026-05-03 21:03 20.14647 92.40715 40870 ft 512 kts 126°
2026-05-03 21:03 20.10538 92.46904 40867 ft 512 kts 126°
2026-05-03 21:04 20.06425 92.53093 40870 ft 512 kts 126°
2026-05-03 21:04 20.02310 92.59277 40870 ft 512 kts 126°
2026-05-03 21:05 19.98195 92.65456 40873 ft 512 kts 126°
2026-05-03 21:05 19.94080 92.71628 40873 ft 511 kts 126°
2026-05-03 21:06 19.89967 92.77791 40873 ft 511 kts 126°
2026-05-03 21:06 19.85845 92.83960 40872 ft 511 kts 126°
2026-05-03 21:07 19.81728 92.90116 40875 ft 511 kts 126°
2026-05-03 21:07 19.77608 92.96270 40875 ft 511 kts 126°
2026-05-03 21:08 19.73522 93.02367 40872 ft 510 kts 126°
2026-05-03 21:08 19.69412 93.08494 40872 ft 508 kts 127°
2026-05-03 21:09 19.65321 93.14588 40874 ft 506 kts 127°
2026-05-03 21:09 19.61231 93.20671 40873 ft 506 kts 127°
2026-05-03 21:10 19.57143 93.26746 40873 ft 506 kts 127°
2026-05-03 21:10 19.53054 93.32817 40872 ft 506 kts 127°
2026-05-03 21:11 19.48988 93.38848 40873 ft 506 kts 127°
2026-05-03 21:11 19.44885 93.44927 40874 ft 506 kts 127°
2026-05-03 21:12 19.40791 93.50987 40877 ft 505 kts 127°
2026-05-03 21:12 19.36694 93.57045 40879 ft 505 kts 127°
2026-05-03 21:13 19.32603 93.63090 40879 ft 505 kts 127°
2026-05-03 21:13 19.28507 93.69134 40878 ft 505 kts 127°
2026-05-03 21:14 19.24412 93.75171 40876 ft 505 kts 127°
2026-05-03 21:14 19.20342 93.81167 40876 ft 505 kts 127°
2026-05-03 21:15 19.16241 93.87201 40875 ft 505 kts 127°
2026-05-03 21:15 19.12137 93.93233 40875 ft 505 kts 127°
2026-05-03 21:16 19.08029 93.99267 40881 ft 505 kts 127°
2026-05-03 21:16 19.03922 94.05292 40878 ft 504 kts 127°
2026-05-03 21:17 19.00515 94.10287 40878 ft 504 kts 127°
2026-05-03 21:17 18.95717 94.17314 40884 ft 504 kts 127°
2026-05-03 21:18 18.91637 94.23282 40880 ft 505 kts 127°
2026-05-03 21:18 18.87521 94.29298 40892 ft 505 kts 127°
2026-05-03 21:19 18.83400 94.35316 40892 ft 505 kts 127°
2026-05-03 21:19 18.79278 94.41327 40889 ft 505 kts 127°
2026-05-03 21:20 18.75157 94.47333 40901 ft 505 kts 127°
2026-05-03 21:20 18.71032 94.53339 40900 ft 505 kts 128°
2026-05-03 21:21 18.66934 94.59301 40909 ft 505 kts 128°
2026-05-03 21:21 18.62818 94.65283 40907 ft 504 kts 128°
2026-05-03 21:22 18.58695 94.71268 40908 ft 504 kts 128°
2026-05-03 21:22 18.54630 94.77284 40908 ft 504 kts 126°
2026-05-03 21:23 18.50663 94.83377 40904 ft 504 kts 126°
2026-05-03 21:23 18.46694 94.89475 40901 ft 504 kts 126°
2026-05-03 21:24 18.42710 94.95552 40896 ft 504 kts 126°
2026-05-03 21:24 18.38713 95.01623 40900 ft 505 kts 127°
2026-05-03 21:25 18.34705 95.07702 40888 ft 505 kts 126°
2026-05-03 21:25 18.30696 95.13778 40889 ft 505 kts 126°
2026-05-03 21:26 18.26606 95.19794 40878 ft 505 kts 128°
2026-05-03 21:26 18.22370 95.25691 40878 ft 505 kts 129°
2026-05-03 21:27 18.18160 95.31541 40878 ft 505 kts 128°
2026-05-03 21:27 18.13940 95.37454 40876 ft 505 kts 128°
2026-05-03 21:28 18.09737 95.43366 40876 ft 505 kts 128°
2026-05-03 21:28 18.05531 95.49280 40875 ft 505 kts 128°
2026-05-03 21:29 18.01323 95.55190 40875 ft 505 kts 128°
2026-05-03 21:29 17.97115 95.61094 40876 ft 504 kts 128°
2026-05-03 21:30 17.92905 95.66994 40877 ft 504 kts 128°
2026-05-03 21:30 17.88695 95.72889 40878 ft 504 kts 128°
2026-05-03 21:31 17.84485 95.78778 40879 ft 504 kts 128°
2026-05-03 21:31 17.80271 95.84669 40879 ft 504 kts 128°
2026-05-03 21:32 17.76053 95.90558 40882 ft 504 kts 128°
2026-05-03 21:32 17.71861 95.96408 40882 ft 504 kts 128°
2026-05-03 21:33 17.67643 96.02289 40882 ft 504 kts 128°
2026-05-03 21:33 17.63427 96.08160 40883 ft 504 kts 128°
2026-05-03 21:34 17.59211 96.14027 40874 ft 503 kts 128°
2026-05-03 21:34 17.54994 96.19891 40878 ft 503 kts 128°
2026-05-03 21:35 17.51210 96.25147 40874 ft 503 kts 128°
2026-05-03 21:35 17.47219 96.30687 40876 ft 503 kts 128°
2026-05-03 21:36 17.43715 96.35547 40877 ft 503 kts 128°
2026-05-03 21:36 17.38805 96.42351 40873 ft 503 kts 128°
2026-05-03 21:37 17.34579 96.48203 40870 ft 503 kts 128°
2026-05-03 21:37 17.31068 96.53060 40872 ft 503 kts 128°
2026-05-03 21:38 17.26807 96.58859 40873 ft 502 kts 129°
2026-05-03 21:38 17.22525 96.64626 40873 ft 501 kts 129°
2026-05-03 21:39 17.18250 96.70390 40873 ft 501 kts 129°
2026-05-03 21:39 17.13989 96.76142 40873 ft 501 kts 129°
2026-05-03 21:40 17.10209 96.81247 40873 ft 501 kts 129°
2026-05-03 21:40 17.06060 96.86845 40873 ft 501 kts 129°
2026-05-03 21:41 17.01790 96.92602 40873 ft 501 kts 129°
2026-05-03 21:41 16.97552 96.98310 40873 ft 500 kts 129°
2026-05-03 21:42 16.93278 97.04063 40876 ft 500 kts 129°
2026-05-03 21:42 16.89037 97.09765 40873 ft 500 kts 129°
2026-05-03 21:43 16.84763 97.15507 40876 ft 501 kts 129°
2026-05-03 21:43 16.80490 97.21244 40876 ft 501 kts 129°
2026-05-03 21:44 16.76214 97.26979 40875 ft 501 kts 129°
2026-05-03 21:44 16.71937 97.32712 40875 ft 501 kts 129°
2026-05-03 21:45 16.67657 97.38444 40878 ft 501 kts 129°
2026-05-03 21:45 16.63371 97.44178 40876 ft 500 kts 129°
2026-05-03 21:46 16.59089 97.49903 40875 ft 500 kts 129°
2026-05-03 21:46 16.54836 97.55584 40875 ft 500 kts 129°
2026-05-03 21:47 16.50557 97.61296 40875 ft 500 kts 129°
2026-05-03 21:47 16.46272 97.67012 40873 ft 500 kts 129°
2026-05-03 21:48 16.41986 97.72724 40873 ft 500 kts 129°
2026-05-03 21:48 16.37662 97.78400 40873 ft 499 kts 133°
2026-05-03 21:49 16.32662 97.83385 40875 ft 498 kts 140°
2026-05-03 21:49 16.27443 97.88121 40876 ft 498 kts 141°
2026-05-03 21:50 16.22190 97.92811 40878 ft 498 kts 141°
2026-05-03 21:50 16.16938 97.97511 40880 ft 497 kts 141°
2026-05-03 21:51 16.11704 98.02209 40878 ft 496 kts 141°
2026-05-03 21:51 16.06483 98.06898 40881 ft 496 kts 141°
2026-05-03 21:52 16.01256 98.11590 40881 ft 496 kts 141°
2026-05-03 21:52 15.96057 98.16252 40881 ft 496 kts 141°
2026-05-03 21:53 15.90825 98.20940 40892 ft 496 kts 141°
2026-05-03 21:53 15.85594 98.25624 40892 ft 496 kts 141°
2026-05-03 21:54 15.80359 98.30308 40891 ft 497 kts 141°
2026-05-03 21:54 15.75110 98.35001 40907 ft 497 kts 141°
2026-05-03 21:55 15.69863 98.39689 40905 ft 498 kts 141°
2026-05-03 21:55 15.64620 98.44371 40905 ft 497 kts 141°
2026-05-03 21:56 15.59372 98.49054 40908 ft 497 kts 141°
2026-05-03 21:56 15.54162 98.53700 40922 ft 497 kts 141°
2026-05-03 21:57 15.48945 98.58430 40922 ft 498 kts 137°
2026-05-03 21:57 15.44351 98.63831 40921 ft 499 kts 131°
2026-05-03 21:58 15.39960 98.69411 40930 ft 499 kts 130°
2026-05-03 21:58 15.35602 98.75020 40930 ft 499 kts 130°
2026-05-03 21:59 15.31235 98.80620 40927 ft 499 kts 130°
2026-05-03 21:59 15.26886 98.86172 40864 ft 499 kts 130°
2026-05-03 22:00 15.24702 98.88957 40620 ft 499 kts 130°
2026-05-03 22:00 15.22507 98.91752 40382 ft 500 kts 130°
2026-05-03 22:00 15.20314 98.94546 40130 ft 501 kts 130°
2026-05-03 22:00 15.18114 98.97348 39893 ft 502 kts 130°
2026-05-03 22:01 15.15953 99.00097 39654 ft 503 kts 130°
2026-05-03 22:01 15.13748 99.02902 39425 ft 503 kts 130°
2026-05-03 22:01 15.11538 99.05712 39190 ft 504 kts 130°
2026-05-03 22:01 15.09322 99.08530 38972 ft 505 kts 130°
2026-05-03 22:02 15.07102 99.11352 38724 ft 506 kts 130°
2026-05-03 22:02 15.04875 99.14181 38474 ft 507 kts 130°
2026-05-03 22:02 15.02651 99.17007 38206 ft 508 kts 131°
2026-05-03 22:02 15.00419 99.19841 37790 ft 505 kts 131°
2026-05-03 22:03 14.98201 99.22657 37166 ft 504 kts 131°
2026-05-03 22:03 14.95986 99.25467 36466 ft 504 kts 131°
2026-05-03 22:03 14.93765 99.28285 35776 ft 505 kts 131°
2026-05-03 22:03 14.91547 99.31097 35049 ft 506 kts 131°
2026-05-03 22:04 14.89315 99.33926 34291 ft 508 kts 131°
2026-05-03 22:04 14.87105 99.36725 33415 ft 512 kts 131°
2026-05-03 22:04 14.84845 99.39587 32503 ft 514 kts 131°
2026-05-03 22:04 14.82582 99.42454 31615 ft 516 kts 131°
2026-05-03 22:05 14.80272 99.45375 30692 ft 519 kts 131°
2026-05-03 22:05 14.78009 99.48235 29740 ft 523 kts 131°
2026-05-03 22:05 14.75709 99.51143 28881 ft 521 kts 131°
2026-05-03 22:05 14.73426 99.54030 28153 ft 517 kts 131°
2026-05-03 22:06 14.71159 99.56896 27462 ft 512 kts 131°
2026-05-03 22:06 14.68914 99.59731 26775 ft 508 kts 131°
2026-05-03 22:06 14.66690 99.62541 26096 ft 503 kts 130°
2026-05-03 22:06 14.64483 99.65328 25429 ft 500 kts 130°
2026-05-03 22:07 14.62287 99.68098 24749 ft 496 kts 130°
2026-05-03 22:07 14.60112 99.70842 24075 ft 492 kts 130°
2026-05-03 22:07 14.57951 99.73566 23408 ft 488 kts 130°
2026-05-03 22:07 14.55809 99.76267 22657 ft 484 kts 130°
2026-05-03 22:08 14.53689 99.78939 21988 ft 477 kts 130°
2026-05-03 22:08 14.51601 99.81570 21323 ft 471 kts 130°
2026-05-03 22:08 14.49535 99.84171 20659 ft 465 kts 130°
2026-05-03 22:08 14.47495 99.86740 20007 ft 459 kts 130°
2026-05-03 22:09 14.45507 99.89296 19464 ft 452 kts 127°
2026-05-03 22:09 14.44026 99.92075 19340 ft 435 kts 111°
2026-05-03 22:09 14.43172 99.94969 19194 ft 415 kts 105°
2026-05-03 22:10 14.41825 100.00457 18863 ft 379 kts 105°
2026-05-03 22:10 14.41178 100.03087 18405 ft 378 kts 105°
2026-05-03 22:10 14.40529 100.05709 17884 ft 377 kts 105°
2026-05-03 22:10 14.39886 100.08316 17557 ft 373 kts 105°
2026-05-03 22:11 14.39239 100.10914 17296 ft 374 kts 105°
2026-05-03 22:11 14.38591 100.13511 17021 ft 373 kts 105°
2026-05-03 22:11 14.37944 100.16098 16744 ft 372 kts 105°
2026-05-03 22:11 14.37299 100.18680 16467 ft 370 kts 105°
2026-05-03 22:12 14.36668 100.21218 16185 ft 369 kts 105°
2026-05-03 22:12 14.36035 100.23746 15928 ft 368 kts 105°
2026-05-03 22:12 14.35398 100.26288 15658 ft 366 kts 105°
2026-05-03 22:12 14.34761 100.28828 15392 ft 365 kts 105°
2026-05-03 22:13 14.34127 100.31354 15123 ft 363 kts 105°
2026-05-03 22:13 14.33498 100.33864 14846 ft 361 kts 105°
2026-05-03 22:13 14.32875 100.36366 14596 ft 360 kts 105°
2026-05-03 22:13 14.32247 100.38865 14345 ft 359 kts 105°
2026-05-03 22:14 14.31624 100.41342 14153 ft 350 kts 105°
2026-05-03 22:14 14.31028 100.43711 13927 ft 333 kts 105°
2026-05-03 22:14 14.30459 100.45978 13696 ft 319 kts 105°
2026-05-03 22:14 14.29904 100.48186 13452 ft 318 kts 105°
2026-05-03 22:15 14.29354 100.50388 13161 ft 316 kts 105°
2026-05-03 22:15 14.28803 100.52575 12867 ft 315 kts 105°
2026-05-03 22:15 14.28261 100.54725 12548 ft 313 kts 105°
2026-05-03 22:15 14.27715 100.56891 12228 ft 311 kts 105°
2026-05-03 22:16 14.27166 100.59068 11918 ft 309 kts 105°
2026-05-03 22:16 14.26634 100.61179 11606 ft 307 kts 105°
2026-05-03 22:16 14.26069 100.63292 11353 ft 305 kts 109°
2026-05-03 22:16 14.25068 100.65194 11120 ft 302 kts 131°
2026-05-03 22:17 14.23421 100.66492 11006 ft 300 kts 155°
2026-05-03 22:17 14.21400 100.66980 10872 ft 300 kts 179°
2026-05-03 22:17 14.19376 100.66558 10650 ft 298 kts 204°
2026-05-03 22:17 14.17469 100.65713 10414 ft 298 kts 199°
2026-05-03 22:18 14.15488 100.65081 10186 ft 297 kts 195°
2026-05-03 22:18 14.13498 100.64532 9961 ft 296 kts 194°
2026-05-03 22:18 14.11502 100.63998 9722 ft 295 kts 193°
2026-05-03 22:18 14.09514 100.63473 9464 ft 294 kts 193°
2026-05-03 22:19 14.07534 100.62951 9255 ft 290 kts 193°
2026-05-03 22:19 14.05640 100.62457 9122 ft 272 kts 193°
2026-05-03 22:19 14.03843 100.61985 8756 ft 264 kts 193°
2026-05-03 22:19 14.02064 100.61597 8205 ft 259 kts 184°
2026-05-03 22:20 14.00319 100.61845 7689 ft 252 kts 156°
2026-05-03 22:20 13.98968 100.62904 7172 ft 247 kts 127°
2026-05-03 22:20 13.98233 100.64473 6653 ft 244 kts 107°
2026-05-03 22:20 13.97776 100.66176 5954 ft 249 kts 104°
2026-05-03 22:21 13.97331 100.67914 5216 ft 253 kts 108°
2026-05-03 22:21 13.96552 100.69541 4509 ft 255 kts 127°
2026-05-03 22:21 13.95377 100.70908 3790 ft 255 kts 136°
2026-05-03 22:21 13.94102 100.72163 3225 ft 251 kts 138°
2026-05-03 22:22 13.92857 100.73350 2949 ft 234 kts 139°
2026-05-03 22:22 13.91722 100.74424 2896 ft 209 kts 139°
2026-05-03 22:22 13.90676 100.75409 2916 ft 205 kts 140°
2026-05-03 22:22 13.89606 100.76411 2919 ft 209 kts 140°
2026-05-03 22:23 13.88537 100.77412 2903 ft 203 kts 140°
2026-05-03 22:23 13.87502 100.78382 2935 ft 201 kts 140°
2026-05-03 22:23 13.86466 100.79343 2893 ft 200 kts 141°
2026-05-03 22:23 13.85289 100.80083 2853 ft 199 kts 166°
2026-05-03 22:24 13.84387 100.80136 2821 ft 194 kts 188°
2026-05-03 22:24 13.82748 100.79699 2715 ft 174 kts 205°
2026-05-03 22:24 13.81626 100.79355 2591 ft 164 kts 189°
2026-05-03 22:24 13.80867 100.79204 2398 ft 165 kts 193°
2026-05-03 22:25 13.79750 100.78908 2068 ft 168 kts 195°
2026-05-03 22:25 13.78666 100.78611 1846 ft 153 kts 194°
2026-05-03 22:25 13.77678 100.78352 1660 ft 140 kts 194°
2026-05-03 22:25 13.76762 100.78111 1489 ft 133 kts 194°
2026-05-03 22:26 13.75866 100.77874 1317 ft 132 kts 194°
2026-05-03 22:26 13.74974 100.77638 1163 ft 133 kts 194°
2026-05-03 22:26 13.74071 100.77406 951 ft 134 kts 193°
2026-05-03 22:26 13.73174 100.77173 784 ft 133 kts 193°
2026-05-03 22:27 13.72246 100.76911 652 ft 141 kts 194°
2026-05-03 22:27 13.71278 100.76652 453 ft 145 kts 192°
2026-05-03 22:27 13.70295 100.76395 267 ft 145 kts 193°
2026-05-03 22:27 13.69335 100.76137 103 ft 140 kts 192°
2026-05-03 22:28 13.68421 100.75898 27 ft 128 kts 191°
2026-05-03 22:28 13.67728 100.75724 20 ft 72 kts 194°
2026-05-03 22:28 13.67434 100.75647 24 ft 35 kts 194°
2026-05-03 22:28 13.67226 100.75567 21 ft 29 kts 208°
2026-05-03 22:29 13.67112 100.75467 23 ft 12 kts 228°
2026-05-03 22:29 13.67109 100.75464 22 ft 0 kts 229°
2026-05-03 22:29 13.67092 100.75435 25 ft 7 kts 251°
2026-05-03 22:30 13.67109 100.75389 23 ft 8 kts 317°
2026-05-03 22:30 13.67166 100.75386 20 ft 10 kts 12°
2026-05-03 22:30 13.67263 100.75412 22 ft 15 kts 14°
2026-05-03 22:30 13.67366 100.75439 24 ft 18 kts 13°
2026-05-03 22:31 13.67495 100.75471 22 ft 20 kts 14°
2026-05-03 22:31 13.67636 100.75508 23 ft 22 kts 15°
2026-05-03 22:31 13.67758 100.75542 23 ft 23 kts 15°
2026-05-03 22:31 13.67912 100.75582 23 ft 25 kts 14°
2026-05-03 22:32 13.68077 100.75626 20 ft 27 kts 14°
2026-05-03 22:32 13.68251 100.75672 22 ft 23 kts 14°
2026-05-03 22:32 13.68374 100.75704 24 ft 11 kts 13°
2026-05-03 22:32 13.68424 100.75707 23 ft 7 kts 338°
2026-05-03 22:33 13.68451 100.75659 23 ft 11 kts 288°
2026-05-03 22:33 13.68478 100.75562 21 ft 14 kts 284°
2026-05-03 22:33 13.68504 100.75460 24 ft 16 kts 284°
2026-05-03 22:33 13.68534 100.75346 23 ft 19 kts 285°
2026-05-03 22:34 13.68563 100.75229 23 ft 17 kts 284°
2026-05-03 22:34 13.68584 100.75165 22 ft 7 kts 307°
2026-05-03 22:34 13.68630 100.75147 20 ft 9 kts
2026-05-03 22:34 13.68695 100.75162 23 ft 11 kts 13°
2026-05-03 22:35 13.68731 100.75170 21 ft 0 kts 13°
2026-05-03 22:35 13.68747 100.75185 21 ft 3 kts 64°
2026-05-03 22:35 13.68749 100.75217 20 ft 4 kts 97°
2026-05-03 22:35 13.68748 100.75222 22 ft 1 kts 99°
2026-05-03 22:36 13.68746 100.75230 24 ft 2 kts 101°
2026-05-03 22:36 13.68744 100.75243 23 ft 1 kts 101°
2026-05-03 22:36 13.68741 100.75254 23 ft 0 kts 103°